| time (UTC) | temp F | wind direction | speed MPH | gust MPH | rain 1hr in | rain 24hr in | rain mn in | humidity % | barometer mb |
| 20260502183224 | 51 | 6 | 6.0 | 9.0 | 0.00 | 0.00 | 0.17 | 73 | 1011.9 |
| 20260502182224 | 51 | 319 | 5.0 | 7.0 | 0.00 | 0.00 | 0.17 | 70 | 1011.9 |
| 20260502181123 | 51 | 2 | 7.0 | 10.0 | 0.00 | 0.00 | 0.17 | 72 | 1011.7 |
| 20260502180622 | 52 | 300 | 4.0 | 6.0 | 0.00 | 0.00 | 0.17 | 71 | 1011.9 |
| 20260502180123 | 53 | 310 | 2.0 | 5.0 | 0.00 | 0.00 | 0.17 | 70 | 1011.9 |
| 20260502170117 | 50 | 196 | 3.0 | 5.0 | 0.00 | 0.00 | 0.17 | 83 | 1011.6 |
| 20260502164119 | 49 | 312 | 3.0 | 5.0 | 0.00 | 0.00 | 0.17 | 90 | 1011.9 |
| 20260502163616 | 49 | 315 | 2.0 | 3.0 | 0.00 | 0.00 | 0.17 | 90 | 1011.9 |
| 20260502163147 | 48 | 324 | 1.0 | 2.0 | 0.00 | 0.00 | 0.17 | 90 | 1011.9 |
| 20260502162648 | 48 | 323 | 3.0 | 5.0 | 0.00 | 0.00 | 0.17 | 90 | 1012.3 |
| 20260502161646 | 49 | 316 | 5.0 | 8.0 | 0.00 | 0.00 | 0.17 | 90 | 1011.9 |
| 20260502161146 | 49 | 345 | 3.0 | 5.0 | 0.00 | 0.00 | 0.17 | 90 | 1011.9 |
| 20260502160644 | 49 | 344 | 2.0 | 3.0 | 0.00 | 0.00 | 0.17 | 91 | 1012.3 |
| 20260502160144 | 49 | 341 | 1.0 | 1.0 | 0.00 | 0.00 | 0.17 | 94 | 1012.3 |
| 20260502152141 | 46 | 3 | 2.0 | 2.0 | 0.00 | 0.00 | 0.17 | 98 | 1012.3 |
| 20260502151640 | 48 | 139 | 6.0 | 8.0 | 0.00 | 0.00 | 0.17 | 98 | 1012.3 |
| 20260502151142 | 47 | 46 | 3.0 | 3.0 | 0.00 | 0.00 | 0.17 | 97 | 1012.3 |
| 20260502150641 | 46 | 196 | 2.0 | 2.0 | 0.00 | 0.00 | 0.17 | 99 | 1012.3 |
| 20260502150140 | 45 | 137 | 3.0 | 6.0 | 0.00 | 0.00 | 0.17 | 99 | 1012.3 |
| 20260502130632 | 43 | 7 | 2.0 | 2.0 | 0.00 | 0.00 | 0.17 | 99 | 1012.6 |
| 20260502130132 | 43 | 314 | 1.0 | 2.0 | 0.00 | 0.00 | 0.17 | 99 | 1012.8 |
| 20260502123630 | 42 | 135 | 5.0 | 6.0 | 0.00 | 0.00 | 0.17 | 99 | 1012.8 |
| 20260502123131 | 42 | 139 | 4.0 | 5.0 | 0.00 | 0.00 | 0.17 | 99 | 1013.0 |
| 20260502122630 | 42 | 297 | 2.0 | 3.0 | 0.00 | 0.00 | 0.17 | 99 | 1012.6 |
| 20260502122129 | 42 | 24 | 2.0 | 3.0 | 0.00 | 0.00 | 0.17 | 99 | 1012.6 |
| 20260502121628 | 42 | 339 | 1.0 | 1.0 | 0.00 | 0.00 | 0.17 | 99 | 1013.0 |
| 20260502121128 | 42 | 324 | 1.0 | 1.0 | 0.00 | 0.00 | 0.17 | 99 | 1012.6 |
| 20260502120629 | 42 | 319 | 1.0 | 1.0 | 0.00 | 0.00 | 0.17 | 99 | 1012.8 |
| 20260502120128 | 42 | 333 | 1.0 | 1.0 | 0.00 | 0.00 | 0.17 | 99 | 1012.6 |
| 20260502115627 | 42 | 296 | 2.0 | 2.0 | 0.00 | 0.00 | 0.17 | 99 | 1013.0 |
| 20260502115126 | 42 | 332 | 1.0 | 1.0 | 0.00 | 0.00 | 0.17 | 99 | 1012.6 |
| 20260502114127 | 42 | 332 | 1.0 | 2.0 | 0.00 | 0.00 | 0.17 | 99 | 1012.6 |
| 20260502113626 | 42 | 340 | 1.0 | 1.0 | 0.00 | 0.00 | 0.17 | 99 | 1012.6 |
| 20260502113125 | 41 | 0.0 | 0.0 | 0.00 | 0.00 | 0.17 | 99 | 1012.6 | |
| 20260502112624 | 41 | 16 | 2.0 | 2.0 | 0.00 | 0.00 | 0.17 | 99 | 1012.6 |
| 20260502112126 | 41 | 5 | 2.0 | 2.0 | 0.00 | 0.00 | 0.17 | 99 | 1012.6 |
| 20260502111226 | 41 | 318 | 1.0 | 1.0 | 0.00 | 0.00 | 0.17 | 99 | 1013.0 |
| 20260502110623 | 41 | 341 | 1.0 | 2.0 | 0.00 | 0.00 | 0.17 | 99 | 1012.6 |
| 20260502110124 | 41 | 345 | 1.0 | 1.0 | 0.00 | 0.00 | 0.17 | 99 | 1012.6 |
| 20260502105623 | 41 | 0.0 | 0.0 | 0.00 | 0.00 | 0.17 | 99 | 1012.6 | |
| 20260502105123 | 41 | 341 | 0.0 | 1.0 | 0.00 | 0.00 | 0.17 | 99 | 1012.3 |
| 20260502104624 | 41 | 0.0 | 0.0 | 0.00 | 0.00 | 0.17 | 99 | 1012.3 | |
| 20260502104123 | 41 | 0.0 | 0.0 | 0.00 | 0.00 | 0.17 | 99 | 1012.3 | |
| 20260502103622 | 41 | 0.0 | 0.0 | 0.00 | 0.00 | 0.17 | 99 | 1012.3 | |
| 20260502103121 | 40 | 331 | 0.0 | 1.0 | 0.00 | 0.00 | 0.17 | 99 | 1012.3 |
| 20260502102622 | 40 | 0.0 | 0.0 | 0.00 | 0.00 | 0.17 | 99 | 1012.3 | |
| 20260502102122 | 40 | 0.0 | 0.0 | 0.00 | 0.00 | 0.17 | 99 | 1012.3 | |
| 20260502101621 | 40 | 333 | 1.0 | 1.0 | 0.00 | 0.00 | 0.17 | 99 | 1012.3 |
| 20260502101122 | 40 | 0.0 | 0.0 | 0.00 | 0.00 | 0.17 | 99 | 1012.1 | |
| 20260502100619 | 40 | 331 | 0.0 | 1.0 | 0.00 | 0.00 | 0.17 | 99 | 1012.3 |
| 20260502100120 | 40 | 335 | 1.0 | 1.0 | 0.00 | 0.00 | 0.17 | 99 | 1012.3 |
| 20260502091116 | 40 | 0.0 | 0.0 | 0.00 | 0.00 | 0.17 | 99 | 1012.6 | |
| 20260502090646 | 40 | 334 | 1.0 | 1.0 | 0.00 | 0.00 | 0.17 | 99 | 1012.6 |
| 20260502090117 | 40 | 0.0 | 0.0 | 0.00 | 0.00 | 0.17 | 99 | 1012.6 | |
| 20260502071138 | 41 | 0.0 | 0.0 | 0.00 | 0.00 | 0.09 | 99 | 1012.6 | |
| 20260502070638 | 41 | 0.0 | 0.0 | 0.00 | 0.00 | 0.09 | 99 | 1013.0 | |
| 20260502070137 | 41 | 0.0 | 0.0 | 0.00 | 0.00 | 0.08 | 99 | 1012.6 | |
| 20260502065636 | 41 | 0.0 | 0.0 | 0.00 | 0.00 | 0.08 | 99 | 1013.0 | |
| 20260502065137 | 41 | 331 | 1.0 | 1.0 | 0.00 | 0.00 | 0.08 | 99 | 1013.0 |
| 20260502064637 | 41 | 338 | 0.0 | 1.0 | 0.00 | 0.00 | 0.08 | 99 | 1013.0 |
| 20260502063637 | 41 | 0.0 | 0.0 | 0.00 | 0.00 | 0.08 | 99 | 1013.0 | |
| 20260502063136 | 41 | 0.0 | 0.0 | 0.00 | 0.00 | 0.08 | 99 | 1013.0 | |
| 20260502062634 | 41 | 0.0 | 0.0 | 0.00 | 0.00 | 0.08 | 99 | 1013.0 | |
| 20260502062134 | 41 | 337 | 1.0 | 1.0 | 0.00 | 0.00 | 0.08 | 99 | 1013.3 |
| 20260502061635 | 41 | 329 | 0.0 | 1.0 | 0.00 | 0.00 | 0.08 | 99 | 1013.3 |
| 20260502061138 | 42 | 0.0 | 0.0 | 0.00 | 0.00 | 0.08 | 99 | 1013.3 | |
| 20260502060635 | 42 | 0.0 | 0.0 | 0.00 | 0.00 | 0.08 | 99 | 1013.3 | |
| 20260502060234 | 42 | 336 | 0.0 | 1.0 | 0.00 | 0.00 | 0.08 | 99 | 1013.3 |
| 20260502055633 | 42 | 326 | 1.0 | 1.0 | 0.00 | 0.00 | 0.08 | 99 | 1013.7 |
| 20260502055135 | 42 | 0.0 | 0.0 | 0.00 | 0.00 | 0.07 | 99 | 1013.7 | |
| 20260502054632 | 42 | 339 | 1.0 | 2.0 | 0.00 | 0.00 | 0.05 | 99 | 1014.0 |
| 20260502054131 | 42 | 326 | 1.0 | 1.0 | 0.00 | 0.00 | 0.04 | 99 | 1014.0 |
| 20260502053632 | 42 | 0.0 | 0.0 | 0.00 | 0.00 | 0.03 | 98 | 1013.7 | |
| 20260502053131 | 42 | 0.0 | 0.0 | 0.00 | 0.00 | 0.02 | 97 | 1013.7 | |
| 20260502052630 | 43 | 328 | 0.0 | 1.0 | 0.00 | 0.00 | 0.01 | 95 | 1013.5 |
| 20260502052130 | 43 | 331 | 0.0 | 1.0 | 0.00 | 0.00 | 0.01 | 93 | 1013.5 |
| 20260502051632 | 44 | 337 | 1.0 | 1.0 | 0.00 | 0.00 | 0.00 | 90 | 1013.3 |
| 20260502051130 | 44 | 333 | 1.0 | 1.0 | 0.00 | 0.00 | 0.00 | 86 | 1013.3 |
| 20260502050629 | 45 | 328 | 0.0 | 1.0 | 0.00 | 0.00 | 0.00 | 83 | 1013.3 |
| 20260502050129 | 45 | 334 | 1.0 | 2.0 | 0.00 | 0.00 | 0.00 | 80 | 1013.3 |
| 20260502045632 | 46 | 339 | 1.0 | 1.0 | 0.00 | 0.00 | 0.00 | 78 | 1013.3 |
| 20260502045129 | 46 | 338 | 1.0 | 1.0 | 0.00 | 0.00 | 0.00 | 73 | 1013.0 |
| 20260502044628 | 46 | 325 | 1.0 | 2.0 | 0.00 | 0.00 | 0.00 | 71 | 1013.3 |
| 20260502044231 | 46 | 335 | 1.0 | 2.0 | 0.00 | 0.00 | 0.00 | 75 | 1013.3 |
| 20260502043628 | 45 | 334 | 2.0 | 3.0 | 0.00 | 0.00 | 0.00 | 76 | 1013.0 |
| 20260502043128 | 45 | 332 | 2.0 | 2.0 | 0.00 | 0.00 | 0.00 | 81 | 1013.0 |
| 20260502042627 | 45 | 332 | 2.0 | 2.0 | 0.00 | 0.00 | 0.00 | 80 | 1013.0 |
| 20260502042126 | 45 | 322 | 2.0 | 2.0 | 0.00 | 0.00 | 0.00 | 80 | 1013.0 |
| 20260502041625 | 45 | 342 | 1.0 | 2.0 | 0.00 | 0.00 | 0.00 | 77 | 1013.0 |
| 20260502041126 | 45 | 327 | 2.0 | 2.0 | 0.00 | 0.00 | 0.00 | 77 | 1013.0 |
| 20260502040626 | 45 | 329 | 2.0 | 2.0 | 0.00 | 0.00 | 0.00 | 74 | 1013.0 |
| 20260502040125 | 45 | 328 | 2.0 | 2.0 | 0.00 | 0.00 | 0.00 | 76 | 1013.0 |
| 20260502035725 | 44 | 327 | 2.0 | 2.0 | 0.00 | 0.00 | 0.00 | 77 | 1013.0 |
| 20260502035227 | 44 | 330 | 2.0 | 2.0 | 0.00 | 0.00 | 0.00 | 75 | 1013.0 |
| 20260502034624 | 44 | 325 | 2.0 | 2.0 | 0.00 | 0.00 | 0.00 | 77 | 1013.0 |
| 20260502034125 | 45 | 327 | 2.0 | 2.0 | 0.00 | 0.00 | 0.00 | 75 | 1013.0 |
| 20260502033623 | 45 | 327 | 1.0 | 1.0 | 0.00 | 0.00 | 0.00 | 74 | 1013.0 |
| 20260502032623 | 45 | 0.0 | 0.0 | 0.00 | 0.00 | 0.00 | 71 | 1013.0 | |
| 20260502032123 | 45 | 334 | 1.0 | 1.0 | 0.00 | 0.00 | 0.00 | 73 | 1012.6 |
| 20260502031622 | 45 | 336 | 1.0 | 2.0 | 0.00 | 0.00 | 0.00 | 71 | 1012.6 |
| 20260502031123 | 45 | 334 | 1.0 | 2.0 | 0.00 | 0.00 | 0.00 | 71 | 1013.0 |
| 20260502030622 | 45 | 340 | 2.0 | 2.0 | 0.00 | 0.00 | 0.00 | 69 | 1012.6 |
| 20260502030121 | 45 | 331 | 1.0 | 2.0 | 0.00 | 0.00 | 0.00 | 72 | 1013.0 |
| 20260502025620 | 45 | 335 | 1.0 | 1.0 | 0.00 | 0.00 | 0.00 | 72 | 1012.8 |
| 20260502025123 | 45 | 337 | 1.0 | 1.0 | 0.00 | 0.00 | 0.00 | 71 | 1012.6 |
| 20260502024620 | 45 | 337 | 1.0 | 2.0 | 0.00 | 0.00 | 0.00 | 72 | 1012.6 |
| 20260502024119 | 45 | 340 | 1.0 | 2.0 | 0.00 | 0.00 | 0.00 | 70 | 1012.6 |
| 20260502023621 | 45 | 330 | 1.0 | 1.0 | 0.00 | 0.00 | 0.00 | 70 | 1013.0 |
| 20260502022619 | 45 | 336 | 1.0 | 1.0 | 0.00 | 0.00 | 0.00 | 69 | 1012.8 |
| 20260502022118 | 46 | 339 | 1.0 | 2.0 | 0.00 | 0.00 | 0.00 | 69 | 1013.0 |
| 20260502021621 | 46 | 336 | 1.0 | 1.0 | 0.00 | 0.00 | 0.00 | 68 | 1013.0 |
| 20260502021118 | 46 | 333 | 1.0 | 1.0 | 0.00 | 0.00 | 0.00 | 66 | 1013.0 |
| 20260502020617 | 46 | 327 | 1.0 | 1.0 | 0.00 | 0.00 | 0.00 | 65 | 1012.8 |
| 20260502020117 | 46 | 339 | 0.0 | 1.0 | 0.00 | 0.00 | 0.00 | 63 | 1013.0 |
| 20260502015616 | 45 | 318 | 2.0 | 3.0 | 0.00 | 0.00 | 0.00 | 64 | 1013.0 |
| 20260502015117 | 45 | 336 | 1.0 | 1.0 | 0.00 | 0.00 | 0.00 | 64 | 1013.0 |
| 20260502014616 | 45 | 331 | 1.0 | 1.0 | 0.00 | 0.00 | 0.00 | 65 | 1013.0 |
| 20260502014116 | 45 | 325 | 2.0 | 2.0 | 0.00 | 0.00 | 0.00 | 67 | 1013.0 |
| 20260502013645 | 45 | 334 | 2.0 | 2.0 | 0.00 | 0.00 | 0.00 | 69 | 1013.0 |
| 20260502013150 | 44 | 325 | 1.0 | 1.0 | 0.00 | 0.00 | 0.00 | 70 | 1013.0 |
| 20260502012648 | 44 | 318 | 2.0 | 2.0 | 0.00 | 0.00 | 0.00 | 70 | 1013.0 |
| 20260502012144 | 45 | 319 | 2.0 | 2.0 | 0.00 | 0.00 | 0.00 | 69 | 1013.1 |
| 20260502011644 | 45 | 334 | 1.0 | 2.0 | 0.00 | 0.00 | 0.00 | 70 | 1013.0 |
| 20260502011145 | 45 | 327 | 1.0 | 1.0 | 0.00 | 0.00 | 0.00 | 68 | 1013.0 |
| 20260502010644 | 45 | 328 | 1.0 | 1.0 | 0.00 | 0.00 | 0.00 | 67 | 1013.0 |
| 20260502010143 | 45 | 328 | 1.0 | 1.0 | 0.00 | 0.00 | 0.00 | 66 | 1013.0 |
| 20260502005642 | 46 | 331 | 1.0 | 1.0 | 0.00 | 0.00 | 0.00 | 65 | 1012.6 |
| 20260502005142 | 46 | 330 | 1.0 | 1.0 | 0.00 | 0.00 | 0.00 | 65 | 1012.6 |
| 20260502004643 | 46 | 333 | 1.0 | 2.0 | 0.00 | 0.00 | 0.00 | 63 | 1012.6 |
| 20260502004142 | 46 | 330 | 0.0 | 1.0 | 0.00 | 0.00 | 0.00 | 64 | 1012.6 |
| 20260502003641 | 46 | 326 | 1.0 | 1.0 | 0.00 | 0.00 | 0.00 | 66 | 1012.6 |
| 20260502003140 | 47 | 325 | 1.0 | 2.0 | 0.00 | 0.00 | 0.00 | 64 | 1012.6 |
| 20260502002641 | 46 | 330 | 1.0 | 2.0 | 0.00 | 0.00 | 0.00 | 62 | 1012.6 |
| 20260502002140 | 46 | 325 | 1.0 | 2.0 | 0.00 | 0.00 | 0.00 | 66 | 1012.3 |
| 20260502001639 | 45 | 332 | 2.0 | 2.0 | 0.00 | 0.00 | 0.00 | 71 | 1012.3 |
| 20260502001139 | 45 | 328 | 2.0 | 2.0 | 0.00 | 0.00 | 0.00 | 71 | 1012.3 |
| 20260502000638 | 46 | 318 | 2.0 | 2.0 | 0.00 | 0.00 | 0.00 | 72 | 1012.3 |
| 20260502000139 | 46 | 327 | 2.0 | 2.0 | 0.00 | 0.00 | 0.00 | 71 | 1012.3 |
| 20260501235638 | 47 | 329 | 1.0 | 2.0 | 0.00 | 0.00 | 0.00 | 72 | 1012.1 |
| 20260501235137 | 47 | 329 | 2.0 | 2.0 | 0.00 | 0.00 | 0.00 | 69 | 1012.3 |
| 20260501234639 | 47 | 333 | 2.0 | 2.0 | 0.00 | 0.00 | 0.00 | 70 | 1012.1 |
| 20260501234138 | 48 | 327 | 1.0 | 2.0 | 0.00 | 0.00 | 0.00 | 70 | 1011.9 |
| 20260501233637 | 48 | 334 | 2.0 | 2.0 | 0.00 | 0.00 | 0.00 | 69 | 1011.9 |
| 20260501233136 | 48 | 332 | 1.0 | 1.0 | 0.00 | 0.00 | 0.00 | 70 | 1011.9 |
| 20260501232637 | 48 | 326 | 1.0 | 2.0 | 0.00 | 0.00 | 0.00 | 67 | 1011.9 |
| 20260501231636 | 49 | 334 | 1.0 | 1.0 | 0.00 | 0.00 | 0.00 | 64 | 1011.6 |
| 20260501231138 | 49 | 329 | 1.0 | 1.0 | 0.00 | 0.00 | 0.00 | 63 | 1011.6 |
| 20260501230636 | 49 | 338 | 1.0 | 1.0 | 0.00 | 0.00 | 0.00 | 59 | 1011.6 |
| 20260501230136 | 50 | 337 | 1.0 | 1.0 | 0.00 | 0.00 | 0.00 | 60 | 1011.6 |
| 20260501225635 | 50 | 338 | 1.0 | 1.0 | 0.00 | 0.00 | 0.00 | 59 | 1011.6 |
| 20260501225135 | 51 | 332 | 0.0 | 1.0 | 0.00 | 0.00 | 0.00 | 58 | 1011.6 |
| 20260501224634 | 52 | 346 | 1.0 | 2.0 | 0.00 | 0.00 | 0.00 | 56 | 1011.6 |
| 20260501224134 | 52 | 338 | 2.0 | 3.0 | 0.00 | 0.00 | 0.00 | 55 | 1011.6 |
| 20260501223634 | 52 | 0.0 | 0.0 | 0.00 | 0.00 | 0.00 | 54 | 1011.6 | |
| 20260501223132 | 52 | 329 | 1.0 | 2.0 | 0.00 | 0.00 | 0.00 | 50 | 1011.6 |
| 20260501222633 | 53 | 343 | 1.0 | 1.0 | 0.00 | 0.00 | 0.00 | 50 | 1011.6 |
| 20260501222132 | 53 | 359 | 1.0 | 1.0 | 0.00 | 0.00 | 0.00 | 47 | 1011.4 |
| 20260501221632 | 53 | 318 | 3.0 | 5.0 | 0.00 | 0.00 | 0.00 | 50 | 1011.6 |
| 20260501221131 | 53 | 335 | 1.0 | 2.0 | 0.00 | 0.00 | 0.00 | 50 | 1011.6 |
| 20260501220632 | 53 | 335 | 1.0 | 1.0 | 0.00 | 0.00 | 0.00 | 46 | 1011.6 |
| 20260501220131 | 53 | 335 | 3.0 | 6.0 | 0.00 | 0.00 | 0.00 | 44 | 1011.6 |
| 20260501215630 | 54 | 312 | 1.0 | 2.0 | 0.00 | 0.00 | 0.00 | 44 | 1011.6 |
| 20260501215130 | 55 | 334 | 4.0 | 6.0 | 0.00 | 0.00 | 0.00 | 42 | 1011.2 |
| 20260501214629 | 56 | 327 | 5.0 | 8.0 | 0.00 | 0.00 | 0.00 | 43 | 1011.6 |
| 20260501214130 | 56 | 309 | 2.0 | 5.0 | 0.00 | 0.00 | 0.00 | 42 | 1011.2 |
| 20260501213629 | 54 | 322 | 1.0 | 2.0 | 0.00 | 0.00 | 0.00 | 43 | 1011.6 |
| 20260501213128 | 55 | 344 | 2.0 | 2.0 | 0.00 | 0.00 | 0.00 | 42 | 1011.2 |
| 20260501212627 | 55 | 286 | 4.0 | 8.0 | 0.00 | 0.00 | 0.00 | 41 | 1011.2 |
| 20260501212129 | 54 | 315 | 2.0 | 5.0 | 0.00 | 0.00 | 0.00 | 46 | 1011.4 |
| 20260501211628 | 54 | 337 | 2.0 | 3.0 | 0.00 | 0.00 | 0.00 | 44 | 1011.2 |
| 20260501211127 | 54 | 288 | 4.0 | 5.0 | 0.00 | 0.00 | 0.00 | 43 | 1011.4 |
| 20260501210626 | 54 | 329 | 2.0 | 3.0 | 0.00 | 0.00 | 0.00 | 43 | 1011.2 |
| 20260501210131 | 55 | 311 | 6.0 | 8.0 | 0.00 | 0.00 | 0.00 | 43 | 1011.2 |
| 20260501205727 | 57 | 277 | 3.0 | 6.0 | 0.00 | 0.00 | 0.00 | 40 | 1011.6 |
| 20260501205126 | 57 | 297 | 4.0 | 6.0 | 0.00 | 0.00 | 0.00 | 40 | 1011.2 |
| 20260501204126 | 57 | 311 | 4.0 | 5.0 | 0.00 | 0.00 | 0.00 | 38 | 1011.2 |
| 20260501203625 | 57 | 351 | 6.0 | 9.0 | 0.00 | 0.00 | 0.00 | 40 | 1011.2 |
| 20260501203125 | 57 | 331 | 3.0 | 7.0 | 0.00 | 0.00 | 0.00 | 40 | 1010.9 |
| 20260501202125 | 54 | 286 | 5.0 | 7.0 | 0.00 | 0.00 | 0.00 | 42 | 1011.2 |
| 20260501201624 | 55 | 317 | 3.0 | 8.0 | 0.00 | 0.00 | 0.00 | 42 | 1011.2 |
| 20260501201123 | 57 | 303 | 6.0 | 10.0 | 0.00 | 0.00 | 0.00 | 40 | 1011.2 |
| 20260501200623 | 56 | 4 | 4.0 | 7.0 | 0.00 | 0.00 | 0.00 | 41 | 1011.0 |
| 20260501200122 | 57 | 335 | 3.0 | 6.0 | 0.00 | 0.00 | 0.00 | 42 | 1011.2 |
| 20260501195623 | 57 | 350 | 6.0 | 10.0 | 0.00 | 0.00 | 0.00 | 40 | 1011.2 |
| 20260501184617 | 55 | 294 | 5.0 | 8.0 | 0.00 | 0.00 | 0.00 | 45 | 1011.6 |
| 20260501184116 | 53 | 328 | 2.0 | 2.0 | 0.00 | 0.00 | 0.00 | 46 | 1011.7 |